Weather History for Belleville, IL

Change the Weather History Date:

Thursday, November 1, 2012

  Actual Average Record
Temperature  
Mean Temperature 46 °F -  
Max Temperature 61 °F 66 °F 84 °F (1950)
Min Temperature 32 °F 44 °F 21 °F (1993)
Degree Days  
Heating Degree Days 19    
Moisture  
Dew Point 32 °F    
Average Humidity 58    
Maximum Humidity 89    
Minimum Humidity 34    
Precipitation  
Precipitation 0.00 in - - ()
Sea Level Pressure  
Sea Level Pressure 29.96 in    
Wind  
Wind Speed 3 mph (WSW)    
Max Wind Speed 8 mph    
Max Gust Speed -    
Visibility 10 miles    
Events      
Averages and records for this station are not official NWS values.
T = Trace of Precipitation, MM = Missing Value Source: NWS Daily Summary

Daily Weather History Graph

Daily Weather History Graph

Search for Another Location

Airport:

Trip Planner

Search our weather history database for the weather conditions in past years. The results will help you decide how hot, cold, wet, or windy it might be!

Date:

Astronomy

Nov. 01, 2012 Rise Set
Actual Time 7:26 AM CDT 5:58 PM CDT
Civil Twilight 6:58 AM CDT 6:26 PM CDT
Nautical Twilight 6:27 AM CDT 6:57 PM CDT
Astronomical Twilight 5:56 AM CDT 7:28 PM CDT
Moon 7:57 PM CDT 9:57 AM CDT
Length of Visible Light 11h 27m
Length of Day
10h 32m
Waning Gibbous, 93% of the Moon is Illuminated
Nov 1
Waning Gibbous
Nov 6
Last Quarter
Nov 13
New
Nov 20
First Quarter
Nov 28
Full

Hourly Weather History & Observations

Time (CDT) Temp. Windchill Dew Point Humidity Pressure Visibility Wind Dir Wind Speed Gust Speed Precip Events Conditions
12:55 AM 35.2 °F - 23.7 °F 63% 29.99 in 10.0 mi Calm Calm - N/A   Clear
1:55 AM 36.0 °F 30.3 °F 24.1 °F 62% 29.99 in 10.0 mi WSW 6.9 mph - N/A   Clear
2:55 AM 36.1 °F 32.3 °F 23.7 °F 61% 29.98 in 10.0 mi WSW 4.6 mph - N/A   Clear
3:55 AM 34.5 °F - 24.3 °F 66% 29.99 in 10.0 mi Calm Calm - N/A   Clear
4:55 AM 32.9 °F 28.5 °F 24.8 °F 72% 29.99 in 10.0 mi SW 4.6 mph - N/A   Clear
5:55 AM 34.7 °F 30.6 °F 25.0 °F 68% 30.00 in 10.0 mi WSW 4.6 mph - N/A   Clear
6:55 AM 36.0 °F 33.3 °F 25.3 °F 65% 30.01 in 10.0 mi SW 3.5 mph - N/A   Clear
7:55 AM 38.3 °F 34.8 °F 26.2 °F 62% 30.01 in 10.0 mi WSW 4.6 mph - N/A   Scattered Clouds
8:55 AM 43.3 °F 41.7 °F 28.6 °F 56% 30.01 in 10.0 mi SW 3.5 mph - N/A   Scattered Clouds
9:55 AM 50.0 °F - 28.2 °F 43% 30.02 in 10.0 mi West 5.8 mph - N/A   Clear
10:55 AM 54.0 °F - 28.4 °F 37% 30.03 in 10.0 mi West 5.8 mph - N/A   Partly Cloudy
11:55 AM 56.8 °F - 28.9 °F 34% 30.02 in 10.0 mi West 8.1 mph - N/A   Mostly Cloudy
12:55 PM 57.9 °F - 31.1 °F 36% 29.99 in 10.0 mi West 8.1 mph - N/A   Mostly Cloudy
1:55 PM 58.8 °F - 33.4 °F 38% 29.95 in 10.0 mi SW 4.6 mph - N/A   Mostly Cloudy
2:55 PM 59.7 °F - 34.7 °F 39% 29.93 in 9.0 mi West 5.8 mph - N/A   Mostly Cloudy
3:55 PM 60.6 °F - 37.4 °F 42% 29.91 in 10.0 mi SSW 8.1 mph - N/A   Mostly Cloudy
4:55 PM 60.3 °F - 37.8 °F 43% 29.90 in 10.0 mi SSW 5.8 mph - N/A   Overcast
5:55 PM 58.8 °F - 38.3 °F 47% 29.89 in 10.0 mi SSW 3.5 mph - N/A   Overcast
6:55 PM 54.9 °F - 40.8 °F 59% 29.89 in 10.0 mi Calm Calm - N/A   Overcast
7:55 PM 50.2 °F - 40.8 °F 70% 29.90 in 10.0 mi Calm Calm - N/A   Clear
8:55 PM 46.2 °F - 39.4 °F 77% 29.89 in 10.0 mi Calm Calm - N/A   Clear
9:55 PM 45.1 °F - 38.8 °F 79% 29.89 in 10.0 mi Calm Calm - N/A   Clear
10:55 PM 43.0 °F 41.3 °F 39.4 °F 87% 29.88 in 10.0 mi North 3.5 mph - N/A   Clear
11:55 PM 41.0 °F - 37.9 °F 89% 29.89 in 10.0 mi Calm Calm - N/A   Clear